Nome, AK

1:55 PM AKST on February 19, 2017 (GMT -0900)
Nome

Weather History for PAOM - November, 2012

Change the Weather History Date:

Wednesday, November 7, 2012

  Actual Average Record
Temperature  
Mean Temperature 23 °F 20 °F  
Max Temperature 28 °F 25 °F 41 °F (1979)
Min Temperature 18 °F 14 °F -12 °F (1975)
Degree Days  
Heating Degree Days 42 45  
Month to date heating degree days 328 310  
Since 1 July heating degree days 3040 2960  
Cooling Degree Days 0 0  
Month to date cooling degree days 0 0  
Year to date cooling degree days 0 3  
Moisture  
Dew Point 24 °F    
Average Humidity 0    
Maximum Humidity 0    
Minimum Humidity 0    
Precipitation  
Precipitation T in 0.04 in 0.72 in (1922)
Month to date precipitation 0.02 0.30  
Year to date precipitation 18.13 14.81  
Snow  
Snow T in 0.40 in 6.50 in (1922)
Month to date snowfall 0.2 2.6  
Since 1 July snowfall 2.6 7.8  
Since 1 September snowfall 2.6 7.8  
Snow Depth 1.00 in    
Sea Level Pressure  
Sea Level Pressure 30.42 in    
Wind  
Wind Speed 5 mph (ENE)    
Max Wind Speed 16 mph    
Max Gust Speed 20 mph    
Visibility 10 miles    
Events Snow    
T = Trace of Precipitation, MM = Missing Value Source: NWS Daily Summary

Daily Weather History Graph

Daily Weather History Graph

Search for Another Location

Airport or City:

Trip Planner

Search our weather history database for the weather conditions in past years. The results will help you decide how hot, cold, wet, or windy it might be!

Date:

Astronomy

Nov. 07, 2012 Rise Set
Actual Time 10:09 AM AKST 5:20 PM AKST
Civil Twilight 9:12 AM AKST 6:17 PM AKST
Nautical Twilight 8:12 AM AKST 7:17 PM AKST
Astronomical Twilight 7:16 AM AKST 8:13 PM AKST
Moon 12:51 AM AKST (11/7) 3:46 PM AKST (11/7)
Length of Visible Light 9h 05m
Length of Day
7h 10m
Last Quarter, 41% of the Moon is Illuminated
Nov 7
Last Quarter
Nov 13
New
Nov 20
First Quarter
Nov 28
Full
Dec 6
Last Quarter

Hourly Weather History & Observations

Time (AKST) Temp. Windchill Dew Point Humidity Pressure Visibility Wind Dir Wind Speed Gust Speed Precip Events Conditions
12:53 AM 19.9 °F 12.1 °F 18.0 °F 92% 30.40 in 10.0 mi North 5.8 mph - N/A   Overcast
1:53 AM 21.9 °F - 19.9 °F 92% 30.40 in 10.0 mi Calm Calm - N/A   Overcast
2:53 AM 23.0 °F - 21.0 °F 92% 30.41 in 10.0 mi Calm Calm - N/A   Overcast
3:53 AM 24.1 °F - 21.9 °F 91% 30.41 in 10.0 mi Calm Calm - N/A   Overcast
4:53 AM 24.1 °F - 21.9 °F 91% 30.42 in 10.0 mi Calm Calm - N/A   Overcast
5:53 AM 24.1 °F - 21.9 °F 91% 30.43 in 10.0 mi Calm Calm - N/A   Overcast
6:53 AM 24.1 °F - 21.9 °F 91% 30.43 in 10.0 mi Calm Calm - N/A   Overcast
7:53 AM 25.0 °F - 23.0 °F 92% 30.43 in 10.0 mi Calm Calm - N/A   Overcast
8:53 AM 25.0 °F - 21.9 °F 88% 30.44 in 10.0 mi Calm Calm - N/A   Overcast
9:53 AM 25.0 °F 20.7 °F 23.0 °F 92% 30.44 in 10.0 mi NNE 3.5 mph - N/A   Overcast
10:53 AM 27.0 °F - 23.0 °F 85% 30.45 in 10.0 mi Calm Calm - N/A   Overcast
11:53 AM 27.0 °F 20.5 °F 24.1 °F 89% 30.45 in 10.0 mi East 5.8 mph - N/A   Overcast
12:45 PM 26.6 °F 19.1 °F 24.8 °F 93% 30.45 in 10.0 mi East 6.9 mph - N/A   Overcast
12:53 PM 27.0 °F 19.5 °F 25.0 °F 92% 30.46 in 10.0 mi East 6.9 mph - N/A   Overcast
1:29 PM 26.6 °F 17.5 °F 26.6 °F 100% 30.45 in 10.0 mi East 9.2 mph - N/A   Overcast
1:53 PM 27.0 °F 18.7 °F 27.0 °F 100% 30.45 in 10.0 mi East 8.1 mph - N/A   Overcast
2:53 PM 27.0 °F 19.5 °F 26.1 °F 96% 30.45 in 6.0 mi ENE 6.9 mph - N/A   Overcast
3:53 PM 28.0 °F 21.7 °F 26.1 °F 92% 30.44 in 10.0 mi ENE 5.8 mph - N/A   Overcast
4:21 PM 28.4 °F 23.3 °F 24.8 °F 86% 30.43 in 10.0 mi ENE 4.6 mph - N/A   Overcast
4:53 PM 28.0 °F 22.8 °F 25.0 °F 88% 30.42 in 10.0 mi NE 4.6 mph - N/A   Overcast
5:53 PM 28.0 °F 21.7 °F 25.0 °F 88% 30.42 in 10.0 mi ENE 5.8 mph - N/A   Overcast
6:08 PM 28.4 °F 23.3 °F 24.8 °F 86% 30.41 in 10.0 mi ENE 4.6 mph - N/A   Overcast
6:32 PM 28.4 °F 21.2 °F 26.6 °F 93% 30.41 in 6.0 mi ENE 6.9 mph - 0.00 in Snow Light Snow
6:53 PM 28.0 °F 20.8 °F 26.1 °F 92% 30.41 in 10.0 mi ENE 6.9 mph - 0.00 in   Overcast
7:53 PM 27.0 °F 17.3 °F 24.1 °F 89% 30.40 in 10.0 mi East 10.4 mph - N/A   Overcast
8:08 PM 26.6 °F 16.8 °F 24.8 °F 93% 30.39 in 10.0 mi ESE 10.4 mph - N/A   Overcast
8:53 PM 27.0 °F 15.2 °F 24.1 °F 89% 30.38 in 10.0 mi East 15.0 mph - N/A   Overcast
9:44 PM 26.6 °F 15.2 °F 24.8 °F 93% 30.37 in 10.0 mi East 13.8 mph - N/A   Overcast
9:53 PM 26.1 °F 14.5 °F 24.1 °F 92% 30.37 in 10.0 mi East 13.8 mph - N/A   Overcast
10:53 PM 25.0 °F 14.8 °F 24.1 °F 96% 30.36 in 10.0 mi East 10.4 mph - 0.00 in   Overcast
11:53 PM 25.0 °F 14.8 °F 24.1 °F 96% 30.35 in 10.0 mi ENE 10.4 mph - N/A   Overcast